Weather History for Middleton, WI

Change the Weather History Date:

Monday, May 12, 2014

  Actual Average (KMSN) Record (KMSN)
Temperature  
Mean Temperature 71 °F 56 °F  
Max Temperature 78 °F 67 °F 86 °F (1991)
Min Temperature 64 °F 45 °F 24 °F (1981)
Degree Days  
Heating Degree Days 0 10  
Month to date heating degree days 133  
Since 1 July heating degree days 7140  
Cooling Degree Days 6 1  
Month to date cooling degree days 2  
Year to date cooling degree days 6  
Growing Degree Days 21 (Base 50)    
Moisture  
Dew Point 64 °F    
Average Humidity 82    
Maximum Humidity 95    
Minimum Humidity 63    
Precipitation  
Precipitation 0.88 in 0.11 in 1.84 in (1970)
Month to date precipitation 1.31  
Year to date precipitation 9.59  
Snow  
Snow 0.00 in 0.10 in T in (2006)
Month to date snowfall 0.2  
Since 1 July snowfall 50.9  
Snow Depth -    
Sea Level Pressure  
Sea Level Pressure 29.81 in    
Wind  
Wind Speed 9 mph (South)    
Max Wind Speed 16 mph    
Max Gust Speed 26 mph    
Visibility 10 miles    
Events      
T = Trace of Precipitation, MM = Missing Value Source: NWS Daily Summary

Daily Weather History Graph

Daily Weather History Graph

Search for Another Location

Airport:

Trip Planner

Search our weather history database for the weather conditions in past years. The results will help you decide how hot, cold, wet, or windy it might be!

Date:

Astronomy

May. 12, 2014 Rise Set
Actual Time 5:37 AM CDT 8:11 PM CDT
Civil Twilight 5:05 AM CDT 8:44 PM CDT
Nautical Twilight 4:25 AM CDT 9:24 PM CDT
Astronomical Twilight 3:39 AM CDT 10:11 PM CDT
Moon 6:06 PM CDT (5/12) 4:21 AM CDT (5/12)
Length of Visible Light 15h 38m
Length of Day
14h 33m
Waxing Gibbous, 95% of the Moon is Illuminated
May 12
Waxing Gibbous
May 14
Full
May 21
Last Quarter
May 28
New
Jun 5
First Quarter

Hourly Weather History & Observations

Time (CDT) Temp. Dew Point Humidity Pressure Visibility Wind Dir Wind Speed Gust Speed Precip Events Conditions
12:10 AM 64.2 °F 61.9 °F 92% 29.87 in 10.0 mi ESE 9.2 mph - N/A   Scattered Clouds
12:30 AM 64.8 °F 61.9 °F 90% 29.86 in 10.0 mi ESE 11.5 mph - N/A   Scattered Clouds
12:50 AM 65.3 °F 61.3 °F 87% 29.86 in 10.0 mi SE 11.5 mph - N/A   Mostly Cloudy
1:10 AM 65.3 °F 61.5 °F 88% 29.86 in 10.0 mi SE 8.1 mph - N/A   Mostly Cloudy
1:30 AM 65.3 °F 61.7 °F 88% 29.84 in 10.0 mi SE 6.9 mph - N/A   Overcast
1:50 AM 65.7 °F 61.7 °F 87% 29.83 in 10.0 mi SE 8.1 mph - N/A   Overcast
2:10 AM 65.7 °F 61.7 °F 87% 29.81 in 10.0 mi SE 6.9 mph - N/A   Mostly Cloudy
2:30 AM 64.8 °F 62.6 °F 93% 29.82 in 7.0 mi SE 6.9 mph - 0.09 in   Overcast
2:50 AM 64.8 °F 62.6 °F 93% 29.82 in 10.0 mi SSE 9.2 mph - 0.09 in   Overcast
3:10 AM 65.7 °F 63.3 °F 92% 29.81 in 10.0 mi SSE 12.7 mph 16.1 mph N/A   Overcast
3:35 AM 66.6 °F 63.9 °F 91% 29.80 in 10.0 mi South 12.7 mph 18.4 mph N/A   Mostly Cloudy
3:50 AM 67.3 °F 64.4 °F 90% 29.80 in 10.0 mi South 12.7 mph 19.6 mph N/A   Scattered Clouds
4:10 AM 67.3 °F 64.4 °F 90% 29.80 in 10.0 mi South 11.5 mph 16.1 mph N/A   Mostly Cloudy
4:30 AM 67.5 °F 65.3 °F 93% 29.83 in 2.5 mi West 13.8 mph 23.0 mph 0.12 in   Overcast
4:50 AM 67.3 °F 64.9 °F 92% 29.83 in 10.0 mi West 8.1 mph - 0.12 in   Overcast
5:30 AM 66.7 °F 64.2 °F 92% 29.80 in 10.0 mi SE 3.5 mph - N/A   Scattered Clouds
5:50 AM 66.4 °F 64.4 °F 93% 29.81 in 10.0 mi South 4.6 mph - N/A   Scattered Clouds
6:10 AM 66.2 °F 64.4 °F 94% 29.78 in 10.0 mi SE 5.8 mph - N/A   Mostly Cloudy
6:30 AM 66.7 °F 65.1 °F 95% 29.78 in 7.0 mi SSE 6.9 mph - N/A   Scattered Clouds
6:50 AM 67.5 °F 65.7 °F 94% 29.79 in 7.0 mi South 8.1 mph - N/A   Clear
7:10 AM 68.2 °F 65.7 °F 92% 29.80 in 10.0 mi South 10.4 mph - N/A   Clear
7:30 AM 68.7 °F 65.8 °F 90% 29.79 in 10.0 mi South 10.4 mph - N/A   Scattered Clouds
7:50 AM 69.1 °F 65.8 °F 89% 29.80 in 10.0 mi South 8.1 mph - N/A   Mostly Cloudy
8:10 AM 70.3 °F 65.7 °F 85% 29.80 in 10.0 mi South 9.2 mph - N/A   Mostly Cloudy
8:30 AM 71.6 °F 64.6 °F 78% 29.80 in 10.0 mi South 8.1 mph - N/A   Mostly Cloudy
8:50 AM 71.8 °F 63.5 °F 75% 29.81 in 10.0 mi South 5.8 mph - N/A   Scattered Clouds
9:10 AM 71.8 °F 63.0 °F 74% 29.81 in 10.0 mi SSE 4.6 mph - N/A   Clear
9:30 AM 71.6 °F 64.0 °F 77% 29.82 in 10.0 mi SSE 5.8 mph - N/A   Clear
9:50 AM 71.6 °F 64.8 °F 79% 29.81 in 10.0 mi SSE 3.5 mph - N/A   Mostly Cloudy
10:10 AM 70.2 °F 64.6 °F 82% 29.85 in 10.0 mi NNW 11.5 mph 18.4 mph 0.04 in   Overcast
10:30 AM 66.0 °F 63.5 °F 92% 29.87 in 1.0 mi NNW 9.2 mph 26.5 mph 0.39 in   Overcast
10:50 AM 65.1 °F 63.1 °F 93% 29.88 in 5.0 mi NW 4.6 mph - 0.48 in   Overcast
11:10 AM 65.3 °F 63.5 °F 94% 29.87 in 10.0 mi Calm Calm - N/A   Scattered Clouds
11:30 AM 66.9 °F 64.8 °F 93% 29.86 in 10.0 mi West 4.6 mph - N/A   Clear
11:50 AM 68.9 °F 64.4 °F 86% 29.88 in 10.0 mi West 8.1 mph - N/A   Scattered Clouds
12:10 PM 68.2 °F 64.2 °F 87% 29.86 in 10.0 mi Calm Calm - N/A   Mostly Cloudy
12:50 PM 68.2 °F 65.8 °F 92% 29.79 in 10.0 mi ENE 8.1 mph - 0.01 in   Mostly Cloudy
1:10 PM 68.9 °F 66.0 °F 90% 29.80 in 10.0 mi ESE 6.9 mph - N/A   Clear
1:30 PM 71.1 °F 66.4 °F 85% 29.82 in 10.0 mi SE 11.5 mph - N/A   Clear
1:50 PM 74.7 °F 66.0 °F 74% 29.82 in 10.0 mi SSE 12.7 mph - N/A   Clear
2:30 PM 76.1 °F 64.8 °F 68% 29.83 in 10.0 mi South 11.5 mph - N/A   Mostly Cloudy
2:50 PM 75.2 °F 64.8 °F 70% 29.83 in 10.0 mi SSW 9.2 mph - N/A   Mostly Cloudy
3:10 PM 76.5 °F 66.0 °F 70% 29.82 in 10.0 mi SSW 6.9 mph - N/A   Mostly Cloudy
3:30 PM 76.5 °F 66.4 °F 71% 29.82 in 10.0 mi South 3.5 mph - N/A   Mostly Cloudy
3:50 PM 78.6 °F 67.1 °F 68% 29.81 in 10.0 mi SW 4.6 mph - N/A   Scattered Clouds
4:10 PM 78.3 °F 67.1 °F 68% 29.81 in 10.0 mi WSW 3.5 mph - N/A   Scattered Clouds
4:30 PM 77.4 °F 66.7 °F 70% 29.79 in 10.0 mi Calm Calm - N/A   Scattered Clouds
4:50 PM 75.0 °F 67.1 °F 76% 29.78 in 10.0 mi ESE 9.2 mph - N/A   Mostly Cloudy
5:10 PM 73.6 °F 67.1 °F 80% 29.80 in 10.0 mi Calm Calm - N/A   Overcast
5:30 PM 73.8 °F 67.8 °F 82% 29.75 in 10.0 mi ESE 8.1 mph - N/A   Scattered Clouds
5:50 PM 74.1 °F 69.8 °F 86% 29.76 in 10.0 mi ESE 10.4 mph - N/A   Scattered Clouds
6:10 PM 75.2 °F 65.3 °F 71% 29.75 in 10.0 mi SSW 11.5 mph - N/A   Clear
6:30 PM 75.9 °F 65.5 °F 70% 29.75 in 10.0 mi South 4.6 mph - N/A   Scattered Clouds
6:50 PM 75.2 °F 66.2 °F 73% 29.77 in 10.0 mi SW 3.5 mph - N/A   Clear
7:10 PM 74.3 °F 65.5 °F 74% 29.76 in 10.0 mi SW 10.4 mph - N/A   Clear
7:30 PM 74.5 °F 64.4 °F 71% 29.77 in 10.0 mi SSW 11.5 mph 17.3 mph N/A   Scattered Clouds
7:50 PM 75.0 °F 61.7 °F 63% 29.76 in 10.0 mi SW 10.4 mph 16.1 mph N/A   Mostly Cloudy
8:10 PM 74.3 °F 61.0 °F 63% 29.76 in 10.0 mi SSW 10.4 mph 16.1 mph N/A   Overcast
8:30 PM 73.6 °F 60.8 °F 64% 29.76 in 10.0 mi SW 9.2 mph - N/A   Overcast
8:50 PM 71.6 °F 59.7 °F 66% 29.77 in 10.0 mi SW 15.0 mph 20.7 mph 0.01 in   Overcast
9:10 PM 69.8 °F 61.3 °F 74% 29.80 in 10.0 mi SW 13.8 mph 18.4 mph 0.02 in   Overcast
9:30 PM 69.3 °F 60.3 °F 73% 29.80 in 10.0 mi SSW 11.5 mph - 0.05 in   Overcast
9:50 PM 68.0 °F 61.2 °F 79% 29.80 in 10.0 mi South 9.2 mph - 0.08 in   Overcast
10:10 PM 68.0 °F 61.0 °F 78% 29.80 in 10.0 mi SSE 9.2 mph - 0.01 in   Overcast
10:30 PM 68.2 °F 59.5 °F 74% 29.83 in 10.0 mi SSE 12.7 mph - 0.01 in   Overcast
10:50 PM 66.7 °F 62.8 °F 87% 29.86 in 10.0 mi SSE 12.7 mph - 0.02 in   Overcast
11:10 PM 67.1 °F 64.2 °F 90% 29.85 in 10.0 mi SE 16.1 mph 23.0 mph 0.03 in   Overcast
11:30 PM 66.7 °F 64.0 °F 91% 29.86 in 10.0 mi SE 13.8 mph - 0.06 in   Overcast
11:50 PM 66.4 °F 63.7 °F 91% 29.86 in 10.0 mi South 11.5 mph 17.3 mph 0.07 in   Overcast